Date String (YYYY-MM-DD hh:mm:ss) UTC,Instrument flags,Ambient pressure (hPa),Sample flow (lpm),Bypass flow (lpm),Sample temperature (°C),Ambient temperature (°C),ASC tube jacket temperature (°C),LED temperature (°C),Box temperature (°C),Sample RH (%),Span deviation,Mass concentration (μg/m³),Mass concentration (μg/m³),Mass concentration (μg/m³)
DateTimeUTC,F1_M11,P_M11,Q1_M11,Q2_M11,T1_M11,T2_M11,T3_M11,T4_M11,T5_M11,U1_M11,ZSPAN_M11,X0_M11,X2_M11,X1_M11
2021-12-24 19:00:00,,0810.7,5.01,0.00,24.0,23.3,00.0,33.0,25.7,20.9,0000.0,0003.70,0000.80,0000.34
2021-12-24 19:01:00,,0810.6,5.00,0.00,24.0,23.3,00.0,33.0,25.8,21.0,0000.0,0002.97,0000.80,0000.34
2021-12-24 19:02:00,,0810.6,5.00,0.00,24.0,23.3,00.0,33.0,25.8,21.0,0000.0,0002.58,0000.76,0000.32
2021-12-24 19:03:00,,0810.7,4.99,0.00,24.0,23.3,00.0,33.0,25.7,21.0,0000.0,0002.43,0000.77,0000.31
2021-12-24 19:04:00,,0810.6,5.00,0.00,24.0,23.3,00.0,33.0,25.8,21.1,0000.0,0002.02,0000.74,0000.30
2021-12-24 19:05:00,,0810.6,5.01,0.00,24.0,23.3,00.0,33.0,25.9,20.5,0000.0,0001.84,0000.71,0000.29
2021-12-24 19:06:00,,0810.6,5.00,0.00,24.0,23.3,00.0,33.0,25.9,20.2,0000.0,0001.81,0000.64,0000.26
2021-12-24 19:07:00,,0810.6,4.99,0.00,24.0,23.3,00.0,33.0,25.9,20.5,0000.0,0001.97,0000.61,0000.24
2021-12-24 19:08:00,,0810.8,5.01,0.00,24.0,23.3,00.0,33.0,25.8,21.2,0000.0,0002.66,0000.68,0000.25
2021-12-24 19:09:00,,0811.0,5.00,0.00,24.0,23.3,00.0,33.0,25.8,22.1,0000.0,0003.03,0000.77,0000.25
2021-12-24 19:10:00,,0811.0,4.99,0.00,24.0,23.3,00.0,33.0,25.7,22.7,0000.0,0003.32,0000.85,0000.27
2021-12-24 19:11:00,,0811.0,5.01,0.00,24.0,23.2,00.0,33.0,25.7,22.7,0000.0,0003.26,0000.85,0000.27
2021-12-24 19:12:00,,0811.0,5.00,0.00,24.0,23.2,00.0,33.0,25.7,22.5,0000.0,0003.22,0000.84,0000.27
2021-12-24 19:13:00,,0811.0,5.00,0.00,24.0,23.2,00.0,33.0,25.7,22.7,0000.0,0003.17,0000.82,0000.27
2021-12-24 19:14:00,,0810.9,5.02,0.00,23.9,23.2,00.0,33.0,25.6,22.9,0000.0,0003.21,0000.82,0000.28
2021-12-24 19:15:00,,0811.0,4.99,0.00,23.9,23.1,00.0,33.0,25.6,23.2,0000.0,0003.33,0000.85,0000.28
2021-12-24 19:16:00,,0811.0,5.01,0.00,23.9,23.1,00.0,33.0,25.5,23.4,0000.0,0003.26,0000.89,0000.29
2021-12-24 19:17:00,,0810.9,5.01,0.00,23.9,23.1,00.0,32.9,25.5,23.3,0000.0,0003.28,0000.98,0000.31
2021-12-24 19:18:00,,0810.9,4.99,0.00,23.8,23.0,00.0,32.9,25.5,22.4,0000.0,0003.31,0001.04,0000.32
2021-12-24 19:19:00,,0810.9,5.00,0.00,23.8,23.0,00.0,32.9,25.4,22.7,0000.0,0002.78,0001.01,0000.31
2021-12-24 19:20:00,,0810.9,5.00,0.00,23.8,23.0,00.0,32.9,25.4,23.1,0000.0,0002.50,0000.96,0000.31
2021-12-24 19:21:00,,0810.8,4.99,0.00,23.7,22.9,00.0,32.9,25.4,22.0,0000.0,0002.30,0000.90,0000.30
2021-12-24 19:22:00,,0810.7,5.00,0.00,23.7,22.9,00.0,32.9,25.4,20.9,0000.0,0002.21,0000.89,0000.29
2021-12-24 19:23:00,,0810.6,5.01,0.00,23.7,22.9,00.0,32.8,25.3,20.3,0000.0,0002.46,0000.90,0000.28
2021-12-24 19:24:00,,0810.6,4.98,0.00,23.7,22.9,00.0,32.8,25.4,20.3,0000.0,0002.72,0000.92,0000.27
2021-12-24 19:25:00,,0810.5,5.00,0.00,23.7,23.0,00.0,32.8,25.4,18.2,0000.0,0002.59,0000.86,0000.25
2021-12-24 19:26:00,,0810.6,5.01,0.00,23.7,23.0,00.0,32.8,25.4,17.6,0000.0,0002.35,0000.76,0000.23
2021-12-24 19:27:00,,0810.6,5.01,0.00,23.7,23.0,00.0,32.8,25.4,18.2,0000.0,0002.15,0000.66,0000.20
2021-12-24 19:28:00,,0810.6,5.00,0.00,23.7,23.0,00.0,32.8,25.4,18.0,0000.0,0001.89,0000.56,0000.18
2021-12-24 19:29:00,,0810.6,4.99,0.00,23.8,23.0,00.0,32.8,25.5,18.2,0000.0,0001.53,0000.47,0000.16
2021-12-24 19:30:00,,0810.6,5.01,0.00,23.8,23.0,00.0,32.8,25.5,17.3,0000.0,0001.38,0000.41,0000.14
2021-12-24 19:31:00,,0810.6,4.99,0.00,23.8,23.1,00.0,32.8,25.5,17.1,0000.0,0001.18,0000.34,0000.12
2021-12-24 19:32:00,,0810.5,5.00,0.00,23.8,23.1,00.0,32.8,25.5,17.1,0000.0,0000.98,0000.27,0000.10
2021-12-24 19:33:00,,0810.4,5.01,0.00,23.8,23.1,00.0,32.8,25.5,17.8,0000.0,0000.91,0000.23,0000.09
2021-12-24 19:34:00,,0810.3,5.00,0.00,23.8,23.1,00.0,32.8,25.5,18.5,0000.0,0000.58,0000.18,0000.07
2021-12-24 19:35:00,,0810.3,4.99,0.00,23.8,23.2,00.0,32.8,25.6,18.6,0000.0,0000.26,0000.13,0000.07
2021-12-24 19:36:00,,0810.2,5.00,0.00,23.9,23.2,00.0,32.8,25.6,18.8,0000.0,0000.25,0000.12,0000.07
2021-12-24 19:37:00,,0810.3,5.01,0.00,23.9,23.2,00.0,32.8,25.6,18.7,0000.0,0000.26,0000.13,0000.07
2021-12-24 19:38:00,,0810.2,4.99,0.00,23.9,23.2,00.0,32.8,25.6,18.3,0000.0,0000.25,0000.13,0000.07
2021-12-24 19:39:00,,0810.2,4.99,0.00,23.9,23.2,00.0,32.8,25.6,17.8,0000.0,0000.23,0000.12,0000.06
2021-12-24 19:40:00,,0810.2,5.01,0.00,23.9,23.2,00.0,32.8,25.6,17.9,0000.0,0000.23,0000.12,0000.06
2021-12-24 19:41:00,,0810.2,5.01,0.00,23.9,23.2,00.0,32.9,25.7,18.2,0000.0,0000.23,0000.12,0000.07
2021-12-24 19:42:00,,0810.2,4.98,0.00,23.9,23.2,00.0,32.9,25.7,18.3,0000.0,0000.25,0000.13,0000.06
2021-12-24 19:43:00,,0810.3,5.02,0.00,23.9,23.2,00.0,32.9,25.6,18.7,0000.0,0000.26,0000.13,0000.06
2021-12-24 19:44:00,,0810.3,4.99,0.00,23.9,23.2,00.0,32.9,25.6,17.7,0000.0,0000.22,0000.12,0000.06
2021-12-24 19:45:00,,0810.3,5.01,0.00,23.9,23.2,00.0,32.9,25.5,18.6,0000.0,0000.19,0000.11,0000.06
2021-12-24 19:46:00,,0810.4,5.00,0.00,23.9,23.1,00.0,32.9,25.5,19.1,0000.0,0000.18,0000.11,0000.06
2021-12-24 19:47:00,,0810.5,5.00,0.00,23.8,23.1,00.0,32.9,25.5,19.2,0000.0,0000.16,0000.10,0000.06
2021-12-24 19:48:00,,0810.5,4.99,0.00,23.8,23.1,00.0,32.9,25.5,17.9,0000.0,0000.21,0000.12,0000.07
2021-12-24 19:49:00,,0810.6,4.99,0.00,23.8,23.1,00.0,32.9,25.5,17.4,0000.0,0000.23,0000.13,0000.08
2021-12-24 19:50:00,,0810.6,5.01,0.00,23.8,23.0,00.0,32.9,25.5,17.4,0000.0,0000.23,0000.13,0000.08
2021-12-24 19:51:00,,0810.6,5.00,0.00,23.8,23.0,00.0,32.8,25.5,17.5,0000.0,0000.24,0000.13,0000.08
2021-12-24 19:52:00,,0810.4,5.00,0.00,23.8,23.0,00.0,32.8,25.5,17.5,0000.0,0000.25,0000.14,0000.08
2021-12-24 19:53:00,,0810.3,4.99,0.00,23.8,23.0,00.0,32.8,25.5,18.4,0000.0,0000.23,0000.13,0000.09
2021-12-24 19:54:00,,0810.4,5.01,0.00,23.8,23.0,00.0,32.8,25.5,17.8,0000.0,0000.22,0000.13,0000.09
2021-12-24 19:55:00,,0810.3,5.00,0.00,23.8,23.1,00.0,32.8,25.5,17.4,0000.0,0000.24,0000.13,0000.08
2021-12-24 19:56:00,,0810.2,4.99,0.00,23.8,23.1,00.0,32.8,25.5,16.8,0000.0,0000.26,0000.14,0000.09
2021-12-24 19:57:00,,0810.2,5.01,0.00,23.8,23.1,00.0,32.8,25.5,16.6,0000.0,0000.28,0000.14,0000.09
2021-12-24 19:58:00,,0810.2,5.01,0.00,23.8,23.1,00.0,32.8,25.5,17.8,0000.0,0000.25,0000.13,0000.08
2021-12-24 19:59:00,,0810.2,5.00,0.00,23.8,23.1,00.0,32.8,25.5,18.2,0000.0,0000.23,0000.12,0000.07
